Home   Weather   Bogota   Past weeks

Flag for Colombia Past Weather in Bogota, Colombia — Yesterday and Last 2 Weeks

Now
59 °F

Scattered showers. Passing clouds.


Feels Like: 58 °F
Forecast: 46 / 66 °F
Wind: 7 mph from Southwest

Location: Bogota / Eldorado

Current Time: Apr 27, 2017 at 7:33:01 pm

Latest Report: Apr 27, 2017 at 7:00 pm


Visibility: N/A

Pressure: 30.31 "Hg (22.22 "Hg at 2618m altitude)

Humidity: 82%

Dew Point: 54 °F

Location of BogotaLocation

Past Weather in Bogota — Graph

°F

Bogota Temperature Yesterday

Maximum temperature yesterday: 68 °F (at 4:00 pm)
Minimum temperature yesterday: 52 °F (at 10:00 pm)
Average temperature yesterday: 59 °F

High & Low Weather Summary for the Past Weeks

 TemperatureHumidityPressure
High72 °F (Apr 27, 2:00 pm)100% (Apr 22, 2:00 am)30.41 "Hg (Apr 22, 2:00 am)
Low43 °F (Apr 27, 5:30 am)33% (Apr 27, 12:00 pm)30.20 "Hg (Apr 13, 4:00 pm)
Average58 °F77%30.32 "Hg
* Reported Apr 12 6:00 pm — Apr 27 6:00 pm, Bogota, Weather by CustomWeather, © 2017

Note: Actual official high and low records may vary slightly from our data, if they occured in-between our weather recording intervals... More about our weather records

Advertising

Bogota Weather History for the Previous 24 Hours

Scroll right to see more
 ConditionsComfort  
Time TempWeatherWind HumidityBarometerVisibility
6:00 pm
Thu, Apr 27
59 °FScattered clouds.13 mph88%30.28 "HgN/A
5:08 pm63 °FThunderstorms. Scattered clouds.9 mph77%30.26 "HgN/A
5:00 pm64 °FPartly sunny.14 mph68%30.25 "HgN/A
4:00 pm70 °FScattered clouds.12 mph53%30.23 "HgN/A
3:00 pm70 °FScattered clouds.13 mph53%30.24 "HgN/A
2:00 pm72 °FScattered clouds.7 mph33%30.26 "HgN/A
1:00 pm70 °FScattered clouds.12 mph38%30.30 "HgN/A
12:00 pm70 °FScattered clouds.9 mph33%30.33 "HgN/A
11:00 am68 °FScattered clouds.9 mph35%30.37 "HgN/A
10:00 am66 °FScattered clouds.9 mph40%30.38 "HgN/A
9:00 am63 °FPassing clouds.5 mph56%30.39 "HgN/A
8:00 am59 °FPassing clouds.5 mph68%30.37 "HgN/A
7:26 am52 °FPassing clouds.5 mph94%30.35 "HgN/A
5:30 am43 °FFog.2 mph93%30.31 "HgN/A
3:00 am45 °FPassing clouds.2 mph93%30.30 "HgN/A
2:00 am48 °FPassing clouds.2 mph94%30.32 "HgN/A
1:00 am48 °FPassing clouds.2 mph87%30.33 "HgN/A
10:00 pm
Wed, Apr 26
52 °FPassing clouds.5 mph88%30.36 "HgN/A
9:00 pm59 °FPassing clouds.5 mph63%30.34 "HgN/A
8:00 pm55 °FPassing clouds.2 mph72%30.30 "HgN/A
7:00 pm61 °FPassing clouds.7 mph55%30.29 "HgN/A
Weather by CustomWeather, © 2017

See weather overviewHow to use our weather pages